カタログに戻る

STARLINK-34573

運用中通信VLEO
NORAD 64676·PAYLOAD·🇺🇸 United States

打ち上げ Jun 28, 2025 から Cape Canaveral Space Force Station

Loading…

次のパス (今後24時間)

TLE

最新Source: CelesTrak SupGP

元期: Sep 14, 2026, 21:19 UTC

1 64676C 25139N   26257.88868056 -.00011278  00000+0 -33344-3 0  2577
2 64676  53.1581 323.7237 0001185  87.0633 316.3988 15.34373615    10

AllMySatでSTARLINK-34573をリアルタイム追跡

Download on the App Store